• In Russia
  • List of Countries
  • For 7 days
  • Water Temperature
  • Satellite Maps
  • Weather Map
  • Weather Widgets
  • user-avatar
    Login

    Hourly Weather Tugnuy

    Today, 23 April, Tuesday

    Time Temperature Precipitation Wind Pressure Humidity
    00:00 -2°C° 0 mm 3 mps 711 mmHg 48%
    01:00 -3°C° 0 mm 2 mps 711 mmHg 50%
    02:00 -4°C° 0 mm 2 mps 711 mmHg 54%
    03:00 -4°C° 0 mm 2 mps 712 mmHg 57%
    04:00 -5°C° 0 mm 2 mps 712 mmHg 60%
    05:00 -5°C° 0 mm 3 mps 713 mmHg 54%
    06:00 -4°C° 0 mm 4 mps 714 mmHg 48%
    07:00 -4°C° 0 mm 5 mps 714 mmHg 43%
    08:00 -2°C° 0 mm 5 mps 714 mmHg 38%
    09:00 -1°C° 0 mm 5 mps 714 mmHg 34%
    10:00 +1°C° 0 mm 6 mps 715 mmHg 29%
    11:00 +1°C° 0 mm 6 mps 714 mmHg 28%
    12:00 +2°C° 0 mm 6 mps 714 mmHg 26%
    13:00 +3°C° 0 mm 6 mps 714 mmHg 25%
    14:00 +3°C° 0 mm 5 mps 714 mmHg 25%
    15:00 +3°C° 0 mm 5 mps 714 mmHg 25%
    16:00 +3°C° 0 mm 5 mps 714 mmHg 25%
    17:00 +2°C° 0 mm 3 mps 714 mmHg 30%
    18:00 +2°C° 0 mm 2 mps 714 mmHg 34%
    19:00 +1°C° 0 mm 1 mps 714 mmHg 38%
    20:00 0°C° 0 mm 1 mps 714 mmHg 41%
    21:00 -1°C° 0 mm 1 mps 715 mmHg 44%
    22:00 -3°C° 0 mm 0 mps 715 mmHg 47%
    23:00 -3°C° 0 mm 0 mps 715 mmHg 48%

    Tomorrow, 24 April, Wednesday

    Time Temperature Precipitation Wind Pressure Humidity
    00:00 -3°C° 0 mm 0 mps 715 mmHg 49%
    01:00 -3°C° 0 mm 1 mps 715 mmHg 50%
    02:00 -3°C° 0 mm 1 mps 715 mmHg 51%
    03:00 -3°C° 0 mm 1 mps 715 mmHg 51%
    04:00 -4°C° 0 mm 1 mps 715 mmHg 52%
    05:00 -2°C° 0 mm 1 mps 715 mmHg 46%
    06:00 0°C° 0 mm 1 mps 715 mmHg 40%
    07:00 +2°C° 0 mm 1 mps 715 mmHg 34%
    08:00 +3°C° 0 mm 2 mps 714 mmHg 29%
    09:00 +4°C° 0 mm 2 mps 714 mmHg 24%
    10:00 +5°C° 0 mm 3 mps 713 mmHg 19%
    11:00 +8°C° 0 mm 3 mps 712 mmHg 18%
    12:00 +9°C° 0 mm 3 mps 711 mmHg 16%
    13:00 +10°C° 0 mm 3 mps 710 mmHg 14%
    14:00 +10°C° 0 mm 3 mps 710 mmHg 14%
    15:00 +11°C° 0 mm 3 mps 709 mmHg 14%
    16:00 +12°C° 0 mm 2 mps 709 mmHg 14%
    17:00 +9°C° 0 mm 2 mps 708 mmHg 18%
    18:00 +8°C° 0 mm 1 mps 708 mmHg 22%
    19:00 +6°C° 0 mm 1 mps 708 mmHg 25%
    20:00 +5°C° 0 mm 1 mps 708 mmHg 27%
    21:00 +4°C° 0 mm 1 mps 708 mmHg 29%
    22:00 +3°C° 0 mm 1 mps 708 mmHg 31%
    23:00 +2°C° 0 mm 1 mps 708 mmHg 33%

    Day after tomorrow, 25 April, Thursday

    Time Temperature Precipitation Wind Pressure Humidity
    00:00 +2°C° 0 mm 1 mps 708 mmHg 35%
    01:00 +1°C° 0 mm 1 mps 708 mmHg 36%
    02:00 +1°C° 0 mm 1 mps 708 mmHg 40%
    03:00 +1°C° 0 mm 1 mps 708 mmHg 44%
    04:00 0°C° 0 mm 1 mps 708 mmHg 48%
    05:00 +2°C° 0 mm 1 mps 708 mmHg 45%
    06:00 +4°C° 0 mm 1 mps 708 mmHg 42%
    07:00 +6°C° 0 mm 1 mps 708 mmHg 39%
    08:00 +8°C° 0 mm 1 mps 708 mmHg 37%
    09:00 +10°C° 0 mm 1 mps 709 mmHg 36%
    10:00 +12°C° 0 mm 1 mps 709 mmHg 34%
    11:00 +13°C° 0 mm 1 mps 708 mmHg 32%
    12:00 +14°C° 0 mm 1 mps 708 mmHg 29%
    13:00 +15°C° 0 mm 1 mps 708 mmHg 27%
    14:00 +15°C° 0 mm 1 mps 707 mmHg 27%
    15:00 +15°C° 0 mm 2 mps 707 mmHg 27%
    16:00 +15°C° 0 mm 2 mps 707 mmHg 27%
    17:00 +13°C° 0 mm 2 mps 707 mmHg 32%
    18:00 +11°C° 0 mm 1 mps 707 mmHg 36%
    19:00 +8°C° 0 mm 0 mps 707 mmHg 41%
    20:00 +8°C° 0 mm 1 mps 707 mmHg 44%
    21:00 +8°C° 0 mm 1 mps 707 mmHg 47%
    22:00 +7°C° 0 mm 1 mps 707 mmHg 49%
    23:00 +6°C° 0 mm 1 mps 707 mmHg 53%

    26 April, Friday

    Time Temperature Precipitation Wind Pressure Humidity
    00:00 +6°C° 0 mm 1 mps 706 mmHg 56%
    01:00 +4°C° 0 mm 2 mps 706 mmHg 60%
    02:00 +4°C° 0 mm 2 mps 706 mmHg 64%
    03:00 +3°C° 0 mm 2 mps 705 mmHg 68%
    04:00 +3°C° 0 mm 2 mps 705 mmHg 72%
    05:00 +4°C° 0 mm 2 mps 705 mmHg 65%
    06:00 +5°C° 0 mm 3 mps 704 mmHg 58%
    07:00 +8°C° 0 mm 3 mps 704 mmHg 51%
    08:00 +10°C° 0 mm 4 mps 704 mmHg 46%
    09:00 +12°C° 0 mm 4 mps 703 mmHg 40%
    10:00 +13°C° 0 mm 5 mps 703 mmHg 35%
    11:00 +15°C° 0 mm 4 mps 703 mmHg 32%
    12:00 +17°C° 0 mm 4 mps 703 mmHg 30%
    13:00 +18°C° 0 mm 4 mps 702 mmHg 28%
    14:00 +18°C° 0 mm 4 mps 702 mmHg 27%
    15:00 +17°C° 0 mm 4 mps 702 mmHg 26%
    16:00 +16°C° 0 mm 5 mps 702 mmHg 26%
    17:00 +14°C° 0 mm 4 mps 702 mmHg 31%
    18:00 +12°C° 0 mm 3 mps 702 mmHg 36%
    19:00 +10°C° 0 mm 2 mps 702 mmHg 41%
    20:00 +10°C° 0 mm 1 mps 703 mmHg 46%
    21:00 +9°C° 0 mm 1 mps 704 mmHg 50%
    22:00 +8°C° 0 mm 1 mps 704 mmHg 55%
    23:00 +8°C° 0 mm 1 mps 705 mmHg 56%

    27 April, Saturday

    Time Temperature Precipitation Wind Pressure Humidity
    00:00 +7°C° 0 mm 1 mps 705 mmHg 57%
    01:00 +7°C° 0 mm 1 mps 705 mmHg 59%
    02:00 +6°C° 0 mm 1 mps 705 mmHg 62%
    03:00 +6°C° 0 mm 1 mps 706 mmHg 66%
    04:00 +5°C° 0 mm 1 mps 706 mmHg 69%
    05:00 +7°C° 0 mm 1 mps 706 mmHg 63%
    06:00 +9°C° 0 mm 1 mps 706 mmHg 57%
    07:00 +11°C° 0 mm 1 mps 707 mmHg 50%
    08:00 +13°C° 0 mm 1 mps 707 mmHg 45%
    09:00 +14°C° 0 mm 1 mps 707 mmHg 40%
    10:00 +16°C° 0 mm 1 mps 707 mmHg 35%
    11:00 +17°C° 0 mm 2 mps 706 mmHg 31%
    12:00 +18°C° 0 mm 2 mps 706 mmHg 27%
    13:00 +19°C° 0 mm 2 mps 705 mmHg 24%
    14:00 +19°C° 0 mm 2 mps 705 mmHg 23%
    15:00 +19°C° 0 mm 2 mps 705 mmHg 22%
    16:00 +19°C° 0 mm 2 mps 705 mmHg 20%
    17:00 +17°C° 0 mm 2 mps 705 mmHg 24%
    18:00 +16°C° 0 mm 2 mps 705 mmHg 28%
    19:00 +14°C° 0 mm 2 mps 705 mmHg 32%
    20:00 +13°C° 0 mm 2 mps 705 mmHg 35%
    21:00 +12°C° 0 mm 1 mps 705 mmHg 39%
    22:00 +11°C° 0 mm 1 mps 705 mmHg 43%
    23:00 +10°C° 0 mm 1 mps 705 mmHg 45%

    28 April, Sunday

    Time Temperature Precipitation Wind Pressure Humidity
    00:00 +9°C° 0 mm 0 mps 705 mmHg 48%
    01:00 +8°C° 0 mm 0 mps 705 mmHg 50%
    02:00 +7°C° 0 mm 0 mps 705 mmHg 51%
    03:00 +7°C° 0 mm 0 mps 705 mmHg 53%
    04:00 +6°C° 0 mm 0 mps 705 mmHg 55%
    05:00 +8°C° 0 mm 0 mps 705 mmHg 50%
    06:00 +11°C° 0 mm 1 mps 705 mmHg 45%
    07:00 +12°C° 0 mm 1 mps 705 mmHg 40%
    08:00 +14°C° 0 mm 1 mps 705 mmHg 37%
    09:00 +16°C° 0 mm 2 mps 704 mmHg 34%
    10:00 +18°C° 0 mm 2 mps 704 mmHg 31%
    11:00 +19°C° 0 mm 3 mps 703 mmHg 28%
    12:00 +20°C° 0 mm 3 mps 703 mmHg 25%
    13:00 +21°C° 0 mm 3 mps 703 mmHg 22%
    14:00 +19°C° 0.1 mm 3 mps 702 mmHg 27%
    15:00 +18°C° 0.1 mm 4 mps 702 mmHg 31%
    16:00 +16°C° 0.1 mm 5 mps 702 mmHg 36%
    17:00 +14°C° 0.2 mm 4 mps 702 mmHg 41%
    18:00 +13°C° 0.2 mm 3 mps 702 mmHg 46%
    19:00 +13°C° 0.2 mm 2 mps 703 mmHg 51%
    20:00 +12°C° 0.3 mm 2 mps 703 mmHg 56%
    21:00 +10°C° 0.3 mm 2 mps 704 mmHg 60%
    22:00 +9°C° 0.3 mm 2 mps 704 mmHg 65%
    23:00 +8°C° 0.6 mm 2 mps 704 mmHg 69%
    Show more